www.pogodaiklimat.ru

Погода и климат >> Архив погоды >> Россия >> Дагестан >> Дербент


ПОГОДА в Дербенте

АРХИВ ПОГОДЫ в Дербенте

Время (UTC), дата Ветер
(напр.,м/с)
 
Видим.   Явления Облачность Т
(С)
Тd
(С)
f
(%)
Тe
(С)
Тes
(С)
Комфортность P
(гПа)
Po
(гПа)
Тmin
(С)
Tmax
(С)
R
(мм)
S
(см)
03 17.02 З 2 10 км 4/0
[Ac trans]
-3.0 -8.4 66 -7 -7 холодно 1027.7 1030.0 -3.2 3
06 17.02 СЗ 2 20 км ясно -0.2 -8.8 52 -3 +1 прохладно 1029.3 1031.6 -3.5
09 17.02 С 3 20 км 6/0
[Ac trans Ci fib]
+1.6 -6.5 55 -2 +3 прохладно 1029.4 1031.7
12 17.02 С 2 20 км 8/4 600 м
[Sc Ac trans]
+0.1 -6.7 60 -3 -2 холодно 1029.3 1031.6
15 17.02 З 1 10 км 3/0
[Ac trans]
-1.3 -7.2 64 -3 -3 прохладно 1030.6 1032.9 +2.0
18 17.02 ЮЗ 2 10 км ясно -2.3 -7.1 70 -6 -6 холодно 1031.3 1033.6
21 17.02 З 1 10 км ясно -3.0 -7.2 73 -5 -5 прохладно 1030.7 1033.0
00 18.02 З 1 10 км ясно -4.5 -7.6 79 -7 -7 холодно 1030.6 1033.0
03 18.02 З 1 10 км ясно -3.7 -8.2 71 -6 -6 холодно 1031.1 1033.5 -4.9 2
06 18.02 ЮВ 2 20 км ясно +0.1 -5.7 65 -3 +1 прохладно 1031.5 1033.8
09 18.02 В 4 20 км ясно +1.6 -4.6 63 -3 +2 прохладно 1030.0 1032.3
12 18.02 ЮВ 2 20 км ясно +2.8 -2.9 66 0 +3 по сезону 1028.9 1031.2
15 18.02 Ю 1 10 км ясно +1.3 -3.6 70 -0 -0 по сезону 1028.8 1031.1 +2.9
18 18.02 штиль 0 10 км ясно +0.3 -4.1 72 -1 -1 по сезону 1028.5 1030.8
21 18.02 Ю 1 10 км ясно +0.5 -4.2 71 -1 -1 по сезону 1027.3 1029.6
00 19.02 штиль 0 10 км ясно -2.1 -4.8 82 -3 -3 прохладно 1026.9 1029.3
03 19.02 З 1 10 км ясно +0.1 -6.3 62 -1 -1 по сезону 1028.4 1030.7 -2.1 2
06 19.02 СЗ 3 20 км 4/0
[Ac trans]
+4.2 -5.8 48 +1 +4 по сезону 1030.8 1033.1
09 19.02 С 3 20 км ясно +6.8 -1.0 58 +4 +11 по сезону 1030.9 1033.1
12 19.02 С 2 20 км ясно +5.0 -0.9 66 +3 +6 по сезону 1030.7 1033.0
15 19.02 штиль 0 10 км ясно +2.8 +0.3 84 +2 +2 по сезону 1031.7 1034.0 +7.2
18 19.02 СВ 1 10 км ясно +0.8 -1.1 87 -1 -1 по сезону 1031.8 1034.1
21 19.02 З 1 10 км ясно +0.1 -1.0 92 -2 -2 по сезону 1030.9 1033.3
00 20.02 штиль 0 10 км ясно +0.9 -2.6 77 0 0 по сезону 1029.4 1031.8
03 20.02 Ю 1 10 км ясно -0.4 -2.4 86 -2 -2 по сезону 1029.3 1031.6 -0.6 0
06 20.02 ЮВ 2 20 км ясно +5.2 -4.6 49 +3 +7 по сезону 1029.2 1031.4 -0.8
09 20.02 ЮВ 3 20 км ясно +6.2 +2.0 74 +3 +10 по сезону 1027.4 1029.6
12 20.02 ЮВ 3 20 км ясно +5.9 +1.8 75 +3 +5 по сезону 1025.3 1027.5
15 20.02 Ю 1 10 км ясно +4.1 +0.7 78 +3 +3 по сезону 1024.3 1026.6 +6.5
18 20.02 З 1 10 км ясно +1.7 -1.1 82 0 0 по сезону 1023.3 1025.6
21 20.02 Ю 1 10 км ясно +2.7 -1.0 77 +1 +1 по сезону 1021.4 1023.7
00 21.02 С 2 10 км ясно +0.6 -1.4 86 -3 -3 прохладно 1019.0 1021.3
03 21.02 З 1 10 км ясно -0.9 -2.0 92 -3 -3 прохладно 1018.0 1020.3 -0.9
06 21.02 штиль 0 10 км 10/0
[Ci fib]
+3.2 +0.3 81 +2 +7 по сезону 1017.3 1019.6
09 21.02 ЮВ 2 20 км 8/0
[Ci fib]
+6.4 +2.0 73 +4 +11 по сезону 1015.5 1017.8
12 21.02 С 2 20 км ясно +6.9 +2.7 75 +5 +8 по сезону 1014.2 1016.4
15 21.02 СЗ 1 10 км ясно +4.8 +2.6 86 +3 +3 по сезону 1013.6 1015.9 +7.1
18 21.02 С 2 10 км ясно +3.3 +1.6 89 0 0 по сезону 1012.5 1014.8
21 21.02 СЗ 2 10 км ясно +3.4 +1.4 87 0 0 по сезону 1011.3 1013.5
00 22.02 СЗ 4 10 км 8/8 600 м
[Sc]
+3.0 +0.7 85 -2 -2 по сезону 1011.1 1013.3
03 22.02 СЗ 1 10 км 8/8 600 м
[Sc]
+3.2 0.0 80 +2 +2 по сезону 1011.7 1013.9 +2.2
06 22.02 СЗ 3
{10}
4000 м дымка 10/10 300 м
[St]
+2.3 +0.7 89 -2 -2 прохладно 1014.3 1016.6 +2.1
09 22.02 С 2 20 км 4/0
[Ac trans]
+9.6 +3.1 64 +8 +15 тепло 1013.7 1015.9
12 22.02 СВ 1 20 км ясно +6.4 +1.8 72 +6 +9 по сезону 1012.7 1014.9
15 22.02 ЮВ 1 10 км ясно +4.1 +1.0 80 +3 +3 по сезону 1012.4 1014.6 +9.6
18 22.02 Ю 3 10 км ясно +5.5 +0.6 71 +2 +2 по сезону 1011.9 1014.1
21 22.02 ЮВ 3 10 км ясно +5.5 +0.8 72 +2 +2 по сезону 1010.1 1012.4
00 23.02 ЮВ 3 10 км ясно +2.1 +0.5 89 -2 -2 по сезону 1009.1 1011.3
03 23.02 Ю 2 10 км ясно +1.8 -0.4 85 -2 -2 прохладно 1009.7 1012.0 +0.5
06 23.02 СЗ 2 20 км 9/8 600 м
[Sc Ac trans]
+6.8 +1.5 69 +5 +5 по сезону 1015.6 1017.9
09 23.02 СЗ 5-12
{12}
20 км 8/4 600 м
[Cu hum Ac trans Ci sp]
+8.7 +0.6 57 +6 +7 тепло 1016.5 1018.8
12 23.02 С 2
{12}
20 км 8/6 600 м
[Sc Ac trans]
+8.4 +0.6 58 +7 +8 тепло 1016.9 1019.1
15 23.02 Ю 1 10 км 4/4 600 м
[Sc]
+5.3 +0.9 73 +4 +4 по сезону 1016.1 1018.4 +10.5
18 23.02 Ю 3 10 км 5/5 600 м
[Sc]
+6.1 -2.7 53 +3 +3 по сезону 1014.1 1016.3
21 23.02 Ю 4 10 км 3/0
[Ac trans]
+6.8 -3.6 47 +4 +4 по сезону 1011.4 1013.7
00 24.02 Ю 1 10 км ясно +3.2 -1.9 69 +2 +2 по сезону 1010.1 1012.4

 

Местоположение метеостанции Дербент (Дагестан, Россия): широта 42.07 долгота 48.30 высота над уровнем моря -17 м.

В архиве по умолчанию представлена погода в Дербенте за последнюю неделю. Архивные данные за месяц целиком и за предыдущие месяцы, начиная с января 2011 года, Вы можете получить, выбрав интересующий диапазон дат из раскрывающегося списка и нажав кнопку "Ввод!".

Внимание! Время в таблицах - всемирное. Для получения местного времени необходимо прибавить поправку, которая в Дербенте равна 3 ч.

Смотрите также архив погоды в соседних городах и на ближайших метеорологических станциях:

Погода в Касумкенте (Дагестан, Россия) (46 км)
Погода в Изберге (Дагестан, Россия) (60 км)
Погода в Сергокале (Дагестан, Россия) (67 км)
Погода в Губе (Азербайджан) (80 км)
Погода в Ахты (Дагестан, Россия) (81 км)
Погода в Кумухе (Дагестан, Россия) (98 км)
Погода в Куппе (Дагестан, Россия) (107 км)
Погода в Гунибе (Дагестан, Россия) (116 км)
Погода в Махачкале (Дагестан, Россия) (125 км)
Погода в Габале (Азербайджан) (126 км)

Пояснения к столбцам:

Ветер - указаны скорость ветра в м/с - средняя за 10 мин, порывы в срок и между сроками (в фигурных скобках) и направление, откуда дует ветер: С - северный, СВ - северо-восточный, В - восточный, ЮВ - юго-восточный, Ю - южный, ЮЗ - юго-западный, З - западный, СЗ - северо-западный.
Видимость - горизонтальная дальность видимости в метрах или километрах. При видимости от 1 до 10 км при отсутствии осадков обычно наблюдается дымка, при ухудшении видимости до 1 км и менее - туман. В сухую погоду видимость может ухудшаться дымом, пылью или мглою.
Явления - указаны атмосферные явления, наблюдавшиеся в срок или в последний час перед сроком; фигурными скобками обозначены явления, наблюдавшиеся между сроками (за 1-3 часа до срока); квадратными скобками обозначены град или гололедные отложения с указанием их диаметра в мм.
Облачность - указаны через наклонную черту общая и нижняя облачность в баллах и высота нижней границы облаков в метрах; квадратными скобками обозначены формы облаков: Ci - перистые, Cs - перисто-слоистые, Cc - перисто-кучевые, Ac - высококучевые, As - высокослоистые, Sc - слоисто-кучевые, Ns - слоисто-дождевые, Cu - кучевые, Cb - кучево-дождевые. Подробнее классификацию облаков см. в Атласе облаков (PDF).
T - Температура воздуха - температура, измеренная на высоте 2 м над землей.
Td - Температура точки росы - температура, при понижении до которой содержащийся в воздухе водяной пар достигнет насыщения.
f - Относительная влажность воздуха - влажноcть воздуха, измеренная на высоте 2 м над землей.
Te - Эффективная температура - температура, которую ощущает одетый по сезону человек в тени. Характеристика душности погоды. При расчете учитывается влияние влажности воздуха и скорости ветра на теплоощущения человека.
Tes - Эффективная температура на солнце - температура, которую ощущает человек, с поправкой на солнечный нагрев. Характеристика знойности погоды. Зависит от высоты солнца над горизонтом, облачности и скорости ветра. Ночью, в пасмурную погоду, а также при ветре 12 м/с и более поправка равна нулю.
P - Атмосферное давление - приведенное к уровню моря атмосферное давление.
Po - Атмосферное давление - измеренное на уровне метеостанции атмосферное давление.
Tmin - Минимальная температура - минимум температуры воздуха на высоте 2 м над землей.
Tmax - Максимальная температура - максимум температуры воздуха на высоте 2 м над землей.
R - Количество осадков - Количество выпавших осадков, мм. При наведении курсора мыши на число - период времени, за который выпало указанное количество осадков.
S - Снежный покров - Высота снежного покрова, см. При наведении курсора мыши на число - состояние снежного покрова и степень покрытия местности в баллах.